Location: Eyeline Observatory
(43.2182°N, 78.8632°W)
Time: 11:42:57
(UTC-04:00)

Vanguard 3 - Visible Passes

Search period start: 23 July 2018 00:00
Search period end: 02 August 2018 00:00
Orbit: 508 x 3264 km, 33.3° (Epoch: 22 July)

Date Brightness Start Highest point End Pass type
(mag) Time Alt. Az. Time Alt. Az. Time Alt. Az.
23 Jul 8.9 22:04:37 10° W 22:13:40 32° SSW 22:17:53 17° SSE visible
24 Jul 9.2 23:05:06 10° WSW 23:10:43 18° SW 23:12:40 16° SSW visible
25 Jul 9.2 21:47:37 10° W 21:57:28 32° SSW 22:02:53 13° SSE visible
26 Jul 9.5 22:48:28 10° W 22:54:28 18° SW 22:57:41 13° SSW visible
27 Jul 9.5 21:30:31 10° W 21:41:10 31° SSW 21:47:53 10° SSE visible
28 Jul 9.7 22:31:46 10° W 22:38:06 17° SW 22:42:44 10° S visible
29 Jul 9.7 21:13:22 10° W 21:24:44 31° SW 21:32:02 10° SSE visible
30 Jul 10.0 22:15:04 10° W 22:21:37 16° SW 22:26:38 10° SSW visible
31 Jul 9.9 20:56:11 10° W 21:08:10 30° SW 21:16:04 10° SSE visible
01 Aug 10.2 21:58:23 10° W 22:05:00 16° SW 22:10:13 10° SSW visible
